Regional Weather Roundup
Issued by NWS

Home | Current Version | Previous Version | Text Only | Print | Product List | Glossary Off
Versions: 1 2 3 4 5 6 7 8 9 10 11 12 13 14 15 16 17 18 19 20 21 22 23 24 25 26 27 28 29 30 31 32 33 34 35 36 37 38 39 40 41 42 43 44 45 46 47 48 49 50

000
ASUS43 KLOT 242308
RWRIL

ILLINOIS REGIONAL WEATHER ROUNDUP
NATIONAL WEATHER SERVICE CHICAGO/ROMEOVILLE IL
600 PM CDT SUN JUL 24 2016

NOTE: "FAIR" INDICATES FEW OR NO CLOUDS BELOW 12,000 FEET WITH NO
SIGNIFICANT WEATHER AND/OR OBSTRUCTIONS TO VISIBILITY.

* THESE STATIONS ARE NOT UNDER NWS QUALITY CONTROL. THEY ALSO MAY NOT
  REPORT WEATHER SUCH AS PRECIPITATION OR FOG.

ILZ001-002-007-009-015-016-024-250000-
NORTHWEST ILLINOIS

CITY           SKY/WX    TMP DP  RH WIND       PRES   REMARKS
MOLINE         CLOUDY    89  79  72 W8        29.87S HX 104
STERLING*      PTSUNNY   88  80  77 W9        29.86  HX 104
SAVANNA*       PTSUNNY   90  80  72 W7        29.86F HX 107
$$

ILZ003-004-008-010-011-017-018-250000-
NORTH CENTRAL ILLINOIS

CITY           SKY/WX    TMP DP  RH WIND       PRES   REMARKS
ROCKFORD       PTSUNNY   93  80  65 W14       29.86S HX 112
FREEPORT*      CLOUDY    86  80  80 W8        29.89R HX 101
ROCHELLE*      MOSUNNY   88  81  77 SW8       29.86F HX 106
DE KALB*       CLOUDY    89  79  72 SW14      29.87S HX 105
$$

ILZ005-006-012>014-019>023-250000-
NORTHEAST ILLINOIS

CITY           SKY/WX    TMP DP  RH WIND       PRES   REMARKS
CHICAGO-OHARE  TSTM      83  63  50 NW17G32   29.86R HX  84
CHICAGO-MIDWAY CLOUDY    92  79  65 S15       29.84F HX 108
AURORA         CLOUDY    89  81  77 SW8       29.85F THUNDER HX 108
LANSING*       PTSUNNY   88  79  73 S10       29.88S HX 102
JOLIET*        CLOUDY    90  82  77 S7        29.85F HX 112
WAUKEGAN       CLOUDY    89  79  72 SW13      29.82F HX 104
DUPAGE AIRPORT TSTM      86  80  82 E7G16     29.84F HX 101
WHEELING       TSTM      77  66  68 W13       29.84F
MORRIS*        CLOUDY    88  81  78 SW7       29.84F HX 105
ROMEOVILLE*    MOSUNNY   89  78  70 SW9G72    29.85F HX 102
NORTHERLY ISL    N/A     90  76  63 S15         N/A  HX 101
$$

LMZ740>746-250000-
SOUTHERN LAKE MICHIGAN

STATION/POSITION SKY/WX   TEMP    WIND        PRES    VSBY  WAVE
                          AIR SEA DIR/SP/G                  HT/PER
                          (F)     (DEG/KT/KT) (MB)    (MI)  (FT/S)
SOUTHERN BUOY              78 72  200/ 10/ 12 1009.5R         2/ 4
WILMETTE HARBOR            78 63  230/  6/ 14   N/A           1/ 3
HARRISON CRIB              88     200/ 20/ 22   N/A
BURNHAM HARBOR             89     190/ 11/ 17   N/A
CALUMET HARBOR             89                   N/A
BURNS HARBOR               89     210/ 15/ 25 1012.2S
MICHIGAN CITY              87     180/ 11/ 13   N/A
MICHIGAN CITY 6N           83 74  210/ 12/ 16   N/A           2/ 3
ST. JOSEPH                 80 74  190/  6/  8 1011.2F         2/ 3
$$

ILZ025>027-034>036-040-047-049-050-058-095>099-250000-
WEST-CENTRAL ILLINOIS

CITY           SKY/WX    TMP DP  RH WIND       PRES   REMARKS
QUINCY         CLOUDY    92  80  68 SW9       29.89S HX 110
GALESBURG*     CLOUDY    87  79  77 W7        29.89S HX 102
MACOMB*        CLOUDY    89  80  74 NW8       29.90F HX 107
JACKSONVILLE*  CLOUDY    90  81  74 SW5       29.88F HX 109
PITTSFIELD*    MOSUNNY   93  82  69 SW7       29.90F HX 114
$$

ILZ028>032-037-038-041>044-048-051>054-059>061-250000-
CENTRAL ILLINOIS

CITY           SKY/WX    TMP DP  RH WIND       PRES   REMARKS
PONTIAC        PTSUNNY   90  83  81 S12       29.88F HX 113
BLOOMINGTON    CLOUDY    86  81  85 S9        29.90F HX 102
DECATUR        SUNNY     92  79  65 S12       29.91S HX 108
PEORIA         CLOUDY    91  83  77 SW10      29.86F HX 114
LACON*         TSTM      85  79  80 NE5       29.86R HX  98
LINCOLN*       CLOUDY    92  85  80 S5        29.89S HX 120
SPRINGFIELD    SUNNY     92  80  68 S12       29.89S HX 110
TAYLORVILLE    SUNNY     89  81  76 NW7       29.91S HX 107
$$

ILZ033-039-045-046-055>057-062-063-250000-
EAST-CENTRAL ILLINOIS

CITY           SKY/WX    TMP DP  RH WIND       PRES   REMARKS
CHAMPAIGN      CLOUDY    86  79  79 S7        29.92S HX  99
MATTOON        SUNNY     89  77  67 S9        29.92F HX 101
PARIS*         CLOUDY    87  80  81 S3        29.93F HX 103
$$

ILZ079-100>102-250000-
SOUTHWEST ILLINOIS

CITY           SKY/WX    TMP DP  RH WIND       PRES   REMARKS
BELLEVILLE     MOSUNNY   92  82  73 SE7       29.90S HX 114
CAHOKIA*       MOSUNNY   94  79  61 S9        29.89S HX 111
SPARTA*        SUNNY     90  79  68 S9        29.93S HX 106
$$

ILZ064>066-069>071-074>076-080>082-084>086-088>090-092>094-250000-
SOUTH-CENTRAL ILLINOIS

CITY           SKY/WX    TMP DP  RH WIND       PRES   REMARKS
CARBONDALE     SUNNY     90  74  59 S8        29.93S HX  99
CAIRO*         SUNNY     90  78  67 SE5       29.93S HX 104
EFFINGHAM*     SUNNY     91  78  66 SE5       29.94F HX 105
MARION         MOSUNNY   93  77  59 SW9       29.94  HX 107
MT. VERNON     SUNNY     93  75  55 CALM      29.93F HX 104
CENTRALIA*     SUNNY     93  79  63 S7        29.92S HX 109
SALEM*         MOSUNNY   92  76  58 S7        29.92F HX 103
METROPOLIS*    SUNNY     90  78  68 S3        29.95S HX 104
$$

ILZ067-068-072-073-078-083-087-091-250000-
SOUTHEAST ILLINOIS

CITY           SKY/WX    TMP DP  RH WIND       PRES   REMARKS
LAWRENCEVILLE  CLOUDY    89  79  72 S8        29.94F HX 104
FLORA*         SUNNY     92  79  66 S8        29.94S HX 109
FAIRFIELD*     MOSUNNY   90  78  68 S6        29.92F HX 104
HARRISBURG*    SUNNY     90  79  69 S8        29.94F HX 106
ROBINSON*      MOSUNNY   89  79  72 S6        29.94F HX 105
CARMI*         SUNNY     89  79  71 S6        29.93F HX 105
$$

ABBREVIATIONS USED IN REMARKS
   TC - TEMPERATURE IN CELSIUS
  WCI - WIND CHILL INDEX
   HX - HEAT INDEX
  VSB - VISIBILITY
$$





USA.gov is the U.S. government's official web portal to all federal, state and local government web resources and services.